Location: ??????
(41.3794°N, 22.5014°E)
Time: 22:16:23
(UTC+00:00)

MOS 1 Rocket - Pass Details

Date: 30 November 2020
Orbit: 614 x 831 km, 97.4° (Epoch: 19 January)

Event Time Altitude Azimuth Distance (km) Brightness Sun altitude
Exits shadow 16:24:01 17° 41° (NE) 1,990 5.2 -15.1°
Maximum altitude 16:27:26 32° 94° (E) 1,379 4.3 -15.7°
Drops below altitude 10° 16:32:11 10° 157° (SSE) 2,388 6.0 -16.6°
Sets 16:34:43 0° 167° (SSE) 3,291 6.8 -17.1°
